Location: Fort Wayne
(41.1310°N, 85.1290°W)
Time: 13:36:05
(UTC-04:00)

OPAL - Visible Passes

Search period start: 19 April 2015 00:00
Search period end: 29 April 2015 00:00
Orbit: 744 x 796 km, 100.2° (Epoch: 19 April)

Date Brightness Start Highest point End Pass type
(mag) Time Alt. Az. Time Alt. Az. Time Alt. Az.
19 Apr 8.2 21:54:23 10° N 21:59:26 57° WNW 22:04:30 10° SSW visible
20 Apr 7.5 21:19:00 10° NNE 21:24:09 68° ESE 21:29:19 10° S visible
20 Apr 10.4 22:59:18 10° NNW 23:02:34 17° WNW 23:05:39 10° W visible
21 Apr 9.3 22:22:56 10° N 22:27:32 33° WNW 22:32:06 10° SW visible
22 Apr 7.9 21:47:13 10° N 21:52:21 70° WNW 21:57:32 10° SSW visible
23 Apr 7.7 21:11:56 10° NNE 21:17:01 55° ESE 21:22:08 10° S visible
23 Apr 10.1 22:51:48 10° NNW 22:55:33 20° WNW 22:59:10 10° WSW visible
24 Apr 8.9 22:15:40 10° N 22:20:29 40° WNW 22:25:17 10° SW visible
25 Apr 7.6 21:40:04 10° NNE 21:45:16 85° WNW 21:50:29 10° SSW visible
25 Apr 10.6 23:21:28 10° NW 23:23:28 12° WNW 23:25:13 10° WNW visible
26 Apr 7.9 21:04:55 10° NNE 21:09:52 45° E 21:14:52 10° S visible
26 Apr 9.8 22:44:23 10° N 22:48:32 24° WNW 22:52:34 10° WSW visible
27 Apr 8.6 22:08:25 10° N 22:13:25 49° WNW 22:18:24 10° SW visible
28 Apr 7.5 21:32:56 10° NNE 21:38:10 80° ESE 21:43:23 10° SSW visible
28 Apr 10.5 23:13:38 10° NNW 23:16:29 15° WNW 23:19:07 10° W visible
